sat.trackr.live / text

‹ back to catalog

ONEWEB-0132

NORAD 47278 · 2020-100W

PAYLOAD ACTIVE UNKNOWN

§ Identity

Operator
Country
UK
Launch date
2020-12-18
Launch site
VOSTO
Launch vehicle
Mass (kg)
RCS (m²)

Purposes: comms

External: N2YO · Heavens-Above · Gunter

§ Orbital elements

Epoch: 2026-09-19T10:39:58.825440Z

Period
109.72 min
Inclination
87.8977°
Eccentricity
0.0001991
Mean motion
13.12441406 rev/d
Perigee alt
1,212.2 km
Apogee alt
1,215.2 km
Semi-major
7,591.9 km
B*
-7.2869e-4
RAAN
331.9561°
Arg perigee
99.3433°
Mean anomaly
260.7921°
Rev number
27,694

§ Raw data

ONEWEB-01321 47278U 20100W   26262.44443085 -.00000249  00000+0 -72869-3 0  99922 47278  87.8977 331.9561 0001991  99.3433 260.7921 13.12441406276946

JSON: /api/v1/satellites/47278 · /tle

For live sub-satellite position, see the globe view (requires WebGL).

§ Visibility from observer

Set your observer location to see the next 7 days of passes ≥ 10°. The values pass through the URL so the page stays shareable.

No JS? Fill the form by hand. The geolocation button needs JavaScript.